| time (UTC) | temp F | wind direction | speed MPH | gust MPH | rain 1hr in | rain 24hr in | rain mn in | humidity % | barometer mb |
| 20260902055130 | 59 | 248 | 7.0 | 8.0 | 0.00 | 0.00 | 0.00 | 97 | 1019.0 |
| 20260902053949 | 58 | 256 | 6.0 | 9.0 | 0.00 | 0.00 | 0.00 | 97 | 1019.0 |
| 20260902052728 | 58 | 225 | 3.0 | 4.0 | 0.00 | 0.00 | 0.00 | 97 | 1019.0 |
| 20260902051526 | 58 | 231 | 2.0 | 5.0 | 0.00 | 0.00 | 0.00 | 97 | 1019.0 |
| 20260902050325 | 58 | 225 | 2.0 | 4.0 | 0.00 | 0.00 | 0.00 | 97 | 1019.0 |
| 20260902045124 | 58 | 225 | 2.0 | 3.0 | 0.00 | 0.00 | 0.00 | 97 | 1019.0 |
| 20260902043923 | 58 | 241 | 1.0 | 3.0 | 0.00 | 0.00 | 0.00 | 97 | 1019.0 |
| 20260902042722 | 58 | 220 | 3.0 | 4.0 | 0.00 | 0.00 | 0.00 | 96 | 1019.0 |
| 20260902041521 | 58 | 206 | 3.0 | 5.0 | 0.00 | 0.00 | 0.00 | 96 | 1019.0 |
| 20260902040320 | 59 | 203 | 3.0 | 4.0 | 0.00 | 0.00 | 0.00 | 96 | 1019.0 |
| 20260902035118 | 58 | 180 | 2.0 | 3.0 | 0.00 | 0.00 | 0.00 | 96 | 1019.0 |
| 20260902033917 | 59 | 129 | 1.0 | 3.0 | 0.00 | 0.00 | 0.00 | 96 | 1019.0 |
| 20260902032716 | 59 | 203 | 3.0 | 5.0 | 0.00 | 0.00 | 0.00 | 96 | 1019.0 |
| 20260902031515 | 59 | 214 | 2.0 | 3.0 | 0.00 | 0.00 | 0.00 | 96 | 1019.0 |
| 20260902030414 | 59 | 217 | 2.0 | 5.0 | 0.00 | 0.00 | 0.00 | 96 | 1019.0 |
| 20260902025213 | 59 | 224 | 2.0 | 3.0 | 0.00 | 0.00 | 0.00 | 96 | 1019.0 |
| 20260902024032 | 59 | 248 | 3.0 | 5.0 | 0.00 | 0.00 | 0.00 | 96 | 1019.0 |
| 20260902022811 | 59 | 248 | 5.0 | 7.0 | 0.00 | 0.00 | 0.00 | 96 | 1019.0 |
| 20260902021610 | 59 | 206 | 2.0 | 3.0 | 0.00 | 0.00 | 0.00 | 96 | 1019.0 |
| 20260902020409 | 59 | 197 | 2.0 | 3.0 | 0.00 | 0.00 | 0.00 | 96 | 1019.0 |
| 20260902015228 | 59 | 220 | 1.0 | 2.0 | 0.00 | 0.00 | 0.00 | 96 | 1019.0 |
| 20260902014047 | 59 | 242 | 1.0 | 3.0 | 0.00 | 0.00 | 0.00 | 96 | 1019.0 |
| 20260902012826 | 59 | 194 | 1.0 | 3.0 | 0.00 | 0.00 | 0.00 | 96 | 1019.0 |
| 20260902011605 | 59 | 225 | 1.0 | 3.0 | 0.00 | 0.00 | 0.00 | 96 | 1019.0 |
| 20260902010404 | 59 | 231 | 3.0 | 3.0 | 0.00 | 0.00 | 0.00 | 96 | 1019.0 |
| 20260902005202 | 58 | 248 | 3.0 | 6.0 | 0.00 | 0.00 | 0.00 | 96 | 1019.0 |
| 20260902004001 | 58 | 248 | 4.0 | 7.0 | 0.00 | 0.00 | 0.00 | 96 | 1019.0 |
| 20260902002840 | 58 | 225 | 1.0 | 3.0 | 0.00 | 0.00 | 0.00 | 95 | 1019.0 |
| 20260902001559 | 57 | 212 | 0.0 | 1.0 | 0.00 | 0.00 | 0.00 | 94 | 1019.0 |
| 20260902000359 | 57 | 0.0 | 0.0 | 0.00 | 0.00 | 0.00 | 94 | 1019.0 | |
| 20260901235157 | 57 | 0.0 | 0.0 | 0.00 | 0.00 | 0.00 | 94 | 1019.0 | |
| 20260901233956 | 57 | 0.0 | 0.0 | 0.00 | 0.00 | 0.00 | 93 | 1019.0 | |
| 20260901232755 | 58 | 0.0 | 0.0 | 0.00 | 0.00 | 0.00 | 93 | 1019.0 | |
| 20260901231614 | 58 | 90 | 0.0 | 1.0 | 0.00 | 0.00 | 0.00 | 92 | 1019.0 |
| 20260901230413 | 58 | 203 | 0.0 | 1.0 | 0.00 | 0.00 | 0.00 | 92 | 1019.0 |
| 20260901225152 | 58 | 158 | 0.0 | 1.0 | 0.00 | 0.00 | 0.00 | 91 | 1019.0 |
| 20260901223950 | 59 | 193 | 1.0 | 2.0 | 0.00 | 0.00 | 0.00 | 91 | 1019.0 |
| 20260901222749 | 59 | 161 | 0.0 | 1.0 | 0.00 | 0.00 | 0.00 | 90 | 1019.0 |
| 20260901221548 | 59 | 191 | 1.0 | 1.0 | 0.00 | 0.00 | 0.00 | 90 | 1019.0 |
| 20260901220348 | 60 | 45 | 0.0 | 1.0 | 0.00 | 0.00 | 0.00 | 90 | 1019.0 |
| 20260901215115 | 60 | 180 | 0.0 | 1.0 | 0.00 | 0.00 | 0.00 | 89 | 1019.0 |
| 20260901214014 | 60 | 135 | 0.0 | 1.0 | 0.00 | 0.00 | 0.00 | 89 | 1019.0 |
| 20260901212813 | 61 | 0.0 | 1.0 | 0.00 | 0.00 | 0.00 | 88 | 1019.0 | |
| 20260901211632 | 61 | 185 | 1.0 | 1.0 | 0.00 | 0.00 | 0.00 | 88 | 1019.0 |
| 20260901210411 | 62 | 270 | 1.0 | 1.0 | 0.00 | 0.00 | 0.00 | 87 | 1019.0 |
| 20260901205210 | 62 | 308 | 0.0 | 1.0 | 0.00 | 0.00 | 0.00 | 86 | 1019.0 |
| 20260901204009 | 62 | 342 | 0.0 | 1.0 | 0.00 | 0.00 | 0.00 | 86 | 1019.0 |
| 20260901202808 | 62 | 337 | 1.0 | 3.0 | 0.00 | 0.00 | 0.00 | 85 | 1019.0 |
| 20260901201606 | 63 | 338 | 1.0 | 3.0 | 0.00 | 0.00 | 0.00 | 84 | 1019.0 |
| 20260901200445 | 63 | 331 | 1.0 | 2.0 | 0.00 | 0.00 | 0.00 | 84 | 1019.0 |
| 20260901195204 | 63 | 0 | 0.0 | 1.0 | 0.00 | 0.00 | 0.00 | 84 | 1019.0 |
| 20260901194003 | 64 | 0 | 2.0 | 3.0 | 0.00 | 0.00 | 0.00 | 83 | 1019.0 |
| 20260901192801 | 64 | 0 | 1.0 | 2.0 | 0.00 | 0.00 | 0.00 | 82 | 1019.0 |
| 20260901191600 | 65 | 0 | 1.0 | 2.0 | 0.00 | 0.00 | 0.00 | 81 | 1019.0 |
| 20260901190359 | 65 | 27 | 2.0 | 4.0 | 0.00 | 0.00 | 0.00 | 81 | 1019.0 |
| 20260901185158 | 66 | 346 | 1.0 | 3.0 | 0.00 | 0.00 | 0.00 | 80 | 1019.0 |
| 20260901183956 | 66 | 0 | 3.0 | 5.0 | 0.00 | 0.00 | 0.00 | 79 | 1019.0 |
| 20260901182755 | 67 | 0 | 4.0 | 5.0 | 0.00 | 0.00 | 0.00 | 78 | 1019.0 |
| 20260901181555 | 67 | 315 | 7.0 | 10.0 | 0.00 | 0.00 | 0.00 | 77 | 1019.0 |
| 20260901180353 | 68 | 338 | 3.0 | 5.0 | 0.00 | 0.00 | 0.00 | 77 | 1019.0 |
| 20260901175212 | 68 | 353 | 3.0 | 6.0 | 0.00 | 0.00 | 0.00 | 77 | 1019.0 |
| 20260901173951 | 68 | 347 | 4.0 | 7.0 | 0.00 | 0.00 | 0.00 | 76 | 1019.0 |
| 20260901172750 | 69 | 321 | 4.0 | 7.0 | 0.00 | 0.00 | 0.00 | 76 | 1019.0 |
| 20260901171609 | 69 | 333 | 5.0 | 7.0 | 0.00 | 0.00 | 0.00 | 75 | 1019.0 |
| 20260901170348 | 69 | 334 | 6.0 | 9.0 | 0.00 | 0.00 | 0.00 | 75 | 1019.0 |
| 20260901165207 | 69 | 325 | 6.0 | 9.0 | 0.00 | 0.00 | 0.00 | 75 | 1019.0 |
| 20260901163946 | 70 | 288 | 5.0 | 7.0 | 0.00 | 0.00 | 0.00 | 74 | 1019.0 |
| 20260901162745 | 70 | 298 | 3.0 | 5.0 | 0.00 | 0.00 | 0.00 | 74 | 1019.0 |
| 20260901161544 | 70 | 279 | 4.0 | 5.0 | 0.00 | 0.00 | 0.00 | 73 | 1019.0 |
| 20260901160423 | 71 | 293 | 4.0 | 6.0 | 0.00 | 0.00 | 0.00 | 73 | 1019.0 |
| 20260901155142 | 71 | 255 | 5.0 | 7.0 | 0.00 | 0.00 | 0.00 | 72 | 1019.0 |
| 20260901153941 | 71 | 293 | 6.0 | 8.0 | 0.00 | 0.00 | 0.00 | 72 | 1019.0 |
| 20260901152759 | 72 | 283 | 6.0 | 9.0 | 0.00 | 0.00 | 0.00 | 71 | 1019.0 |
| 20260901151538 | 72 | 282 | 5.0 | 8.0 | 0.00 | 0.00 | 0.00 | 70 | 1019.0 |
| 20260901150337 | 73 | 286 | 6.0 | 8.0 | 0.00 | 0.00 | 0.00 | 69 | 1019.0 |
| 20260901145155 | 74 | 293 | 5.0 | 6.0 | 0.00 | 0.00 | 0.00 | 69 | 1019.0 |
| 20260901143954 | 74 | 277 | 4.0 | 7.0 | 0.00 | 0.00 | 0.00 | 68 | 1019.0 |
| 20260901142733 | 75 | 277 | 8.0 | 11.0 | 0.00 | 0.00 | 0.00 | 68 | 1019.0 |
| 20260901141553 | 76 | 270 | 5.0 | 7.0 | 0.00 | 0.00 | 0.00 | 67 | 1019.0 |
| 20260901140351 | 76 | 338 | 6.0 | 8.0 | 0.00 | 0.00 | 0.00 | 66 | 1019.0 |
| 20260901135129 | 75 | 270 | 7.0 | 11.0 | 0.00 | 0.00 | 0.00 | 67 | 1019.0 |
| 20260901133928 | 75 | 277 | 6.0 | 9.0 | 0.00 | 0.00 | 0.00 | 67 | 1017.3 |
| 20260901132729 | 75 | 282 | 6.0 | 10.0 | 0.00 | 0.00 | 0.00 | 67 | 1019.0 |
| 20260901131528 | 75 | 297 | 5.0 | 11.0 | 0.00 | 0.00 | 0.00 | 67 | 1019.0 |
| 20260901130325 | 75 | 293 | 10.0 | 15.0 | 0.00 | 0.00 | 0.00 | 67 | 1019.0 |
| 20260901125124 | 76 | 315 | 9.0 | 18.0 | 0.00 | 0.00 | 0.00 | 66 | 1019.0 |
| 20260901123922 | 75 | 297 | 7.0 | 13.0 | 0.00 | 0.00 | 0.00 | 69 | 1019.0 |
| 20260901122721 | 75 | 310 | 8.0 | 10.0 | 0.00 | 0.00 | 0.00 | 69 | 1019.0 |
| 20260901121520 | 73 | 332 | 8.0 | 11.0 | 0.00 | 0.00 | 0.00 | 70 | 1019.0 |
| 20260901120320 | 73 | 338 | 6.0 | 8.0 | 0.00 | 0.00 | 0.00 | 74 | 1019.0 |
| 20260901115118 | 72 | 293 | 5.0 | 7.0 | 0.00 | 0.00 | 0.00 | 78 | 1019.0 |
| 20260901113917 | 70 | 287 | 7.0 | 9.0 | 0.00 | 0.00 | 0.00 | 80 | 1019.0 |
| 20260901112716 | 70 | 293 | 6.0 | 9.0 | 0.00 | 0.00 | 0.00 | 81 | 1019.0 |
| 20260901111515 | 69 | 293 | 7.0 | 9.0 | 0.00 | 0.00 | 0.00 | 82 | 1019.0 |
| 20260901110414 | 68 | 299 | 6.0 | 10.0 | 0.00 | 0.00 | 0.00 | 83 | 1019.0 |
| 20260901105213 | 68 | 312 | 5.0 | 9.0 | 0.00 | 0.00 | 0.00 | 83 | 1019.0 |
| 20260901104012 | 68 | 311 | 7.0 | 9.0 | 0.00 | 0.00 | 0.00 | 84 | 1019.0 |